owner,sensor,date,latitude,longitude,vertical_datum,sea_water_temperature,qcFlag
BP,ioos:station:wmo:42369:2,2021-11-01T00:39:00Z,27.2159,-90.2844,502.5,12.1,11111222
BP,ioos:station:wmo:42369:2,2021-11-01T00:59:00Z,27.2159,-90.2844,502.5,12.2,11111222
BP,ioos:station:wmo:42369:2,2021-11-01T01:19:00Z,27.2159,-90.2845,503.3,12.1,11111222
BP,ioos:station:wmo:42369:2,2021-11-01T01:59:00Z,27.2159,-90.2834,503.7,12.3,11111222
BP,ioos:station:wmo:42369:2,2021-11-01T02:19:00Z,27.2159,-90.2834,502.8,12.3,11111222
BP,ioos:station:wmo:42369:2,2021-11-01T02:39:00Z,27.2159,-90.2834,503.4,12.3,11111222
BP,ioos:station:wmo:42369:2,2021-11-01T02:59:00Z,27.2159,-90.2834,503.3,12.2,11111222
BP,ioos:station:wmo:42369:2,2021-11-01T03:19:00Z,27.2159,-90.2834,503.5,12.1,11111222
BP,ioos:station:wmo:42369:2,2021-11-01T03:39:00Z,27.2159,-90.2835,504.2,12.2,11111222
BP,ioos:station:wmo:42369:2,2021-11-01T03:59:00Z,27.2159,-90.2835,504.4,12.3,11111222
BP,ioos:station:wmo:42369:2,2021-11-01T04:19:00Z,27.2159,-90.2835,504.9,12.2,11111222
BP,ioos:station:wmo:42369:2,2021-11-01T04:39:00Z,27.2159,-90.2836,504.3,12.1,11111222
BP,ioos:station:wmo:42369:2,2021-11-01T04:59:00Z,27.2159,-90.2836,504.6,12.1,11111222
BP,ioos:station:wmo:42369:2,2021-11-01T05:19:00Z,27.2159,-90.2836,504.8,12.1,11111222
BP,ioos:station:wmo:42369:2,2021-11-01T05:39:00Z,27.2159,-90.2837,503.3,12.1,11111222
BP,ioos:station:wmo:42369:2,2021-11-01T05:59:00Z,27.2159,-90.2837,504.5,12.1,11111222
BP,ioos:station:wmo:42369:2,2021-11-01T06:19:00Z,27.2159,-90.2837,503.9,12.2,11111222
BP,ioos:station:wmo:42369:2,2021-11-01T06:39:00Z,27.2159,-90.2837,503.5,12.2,11111222
BP,ioos:station:wmo:42369:2,2021-11-01T07:19:00Z,27.2158,-90.2839,504.9,12.2,11111222
BP,ioos:station:wmo:42369:2,2021-11-01T07:39:00Z,27.2158,-90.2840,504.2,12.2,11111222
BP,ioos:station:wmo:42369:2,2021-11-01T07:59:00Z,27.2158,-90.2841,504.3,12.2,11111222
BP,ioos:station:wmo:42369:2,2021-11-01T08:19:00Z,27.2157,-90.2842,504.5,12.3,11111222
BP,ioos:station:wmo:42369:2,2021-11-01T08:39:00Z,27.2157,-90.2842,504.6,12.2,11111222
BP,ioos:station:wmo:42369:2,2021-11-01T08:59:00Z,27.2157,-90.2844,504.6,12.3,11111222
BP,ioos:station:wmo:42369:2,2021-11-01T09:19:00Z,27.2157,-90.2845,505.2,12.3,11111222
BP,ioos:station:wmo:42369:2,2021-11-01T09:59:00Z,27.2157,-90.2846,505.1,12.3,11111222
BP,ioos:station:wmo:42369:2,2021-11-01T10:19:00Z,27.2158,-90.2846,505.5,12.3,11111222
BP,ioos:station:wmo:42369:2,2021-11-01T10:39:00Z,27.2158,-90.2847,505.3,12.3,11111222
BP,ioos:station:wmo:42369:2,2021-11-01T10:59:00Z,27.2158,-90.2848,505.9,12.2,11111222
BP,ioos:station:wmo:42369:2,2021-11-01T11:19:00Z,27.2158,-90.2848,506.1,12.0,11111222
BP,ioos:station:wmo:42369:2,2021-11-01T11:39:00Z,27.2158,-90.2848,507.4,12.0,11111222
BP,ioos:station:wmo:42369:2,2021-11-01T20:19:00Z,27.2158,-90.2852,521.8,11.3,11111222
BP,ioos:station:wmo:42369:2,2021-11-01T22:39:00Z,27.2160,-90.2849,521.4,11.2,11111222
BP,ioos:station:wmo:42369:2,2021-11-01T22:59:00Z,27.2160,-90.2844,522.2,11.3,11111222
BP,ioos:station:wmo:42369:2,2021-11-01T23:19:00Z,27.2160,-90.2844,520.7,11.3,11111222
BP,ioos:station:wmo:42369:2,2021-11-01T23:39:00Z,27.2160,-90.2844,521.2,11.3,11111222
BP,ioos:station:wmo:42369:2,2021-11-01T23:59:00Z,27.2160,-90.2843,520.8,11.3,11111222
BP,ioos:station:wmo:42369:2,2021-11-02T00:19:00Z,27.2160,-90.2843,520.1,11.3,11111222
BP,ioos:station:wmo:42369:2,2021-11-02T00:39:00Z,27.2160,-90.2843,520.2,11.3,11111222
BP,ioos:station:wmo:42369:2,2021-11-02T00:59:00Z,27.2160,-90.2843,520.9,11.4,11111222
BP,ioos:station:wmo:42369:2,2021-11-02T01:19:00Z,27.2160,-90.2844,521.5,11.4,11111222
BP,ioos:station:wmo:42369:2,2021-11-02T01:39:00Z,27.2160,-90.2844,520.6,11.4,11111222
BP,ioos:station:wmo:42369:2,2021-11-02T01:59:00Z,27.2160,-90.2844,521.3,11.4,11111222
BP,ioos:station:wmo:42369:2,2021-11-02T02:19:00Z,27.2160,-90.2844,521.0,11.3,11111222
BP,ioos:station:wmo:42369:2,2021-11-02T02:39:00Z,27.2160,-90.2844,521.8,11.3,11111222
BP,ioos:station:wmo:42369:2,2021-11-02T02:59:00Z,27.2160,-90.2843,522.0,11.3,11111222
BP,ioos:station:wmo:42369:2,2021-11-02T03:19:00Z,27.2160,-90.2843,521.7,11.3,11111222
BP,ioos:station:wmo:42369:2,2021-11-02T03:39:00Z,27.2160,-90.2843,521.1,11.3,11111222
BP,ioos:station:wmo:42369:2,2021-11-02T03:59:00Z,27.2160,-90.2842,521.4,11.2,11111222
BP,ioos:station:wmo:42369:2,2021-11-02T04:19:00Z,27.2160,-90.2842,520.6,11.2,11111222
BP,ioos:station:wmo:42369:2,2021-11-02T04:39:00Z,27.2160,-90.2842,520.5,11.2,11111222
BP,ioos:station:wmo:42369:2,2021-11-02T04:59:00Z,27.2160,-90.2842,519.3,11.5,11111222
BP,ioos:station:wmo:42369:2,2021-11-02T05:19:00Z,27.2160,-90.2843,519.3,11.6,11111222
BP,ioos:station:wmo:42369:2,2021-11-02T05:39:00Z,27.2159,-90.2843,518.7,11.7,11111222
BP,ioos:station:wmo:42369:2,2021-11-02T05:59:00Z,27.2159,-90.2844,519.5,11.8,11111222
BP,ioos:station:wmo:42369:2,2021-11-02T06:19:00Z,27.2159,-90.2844,520.7,11.9,11111222
BP,ioos:station:wmo:42369:2,2021-11-02T06:39:00Z,27.2159,-90.2844,520.5,11.9,11111222
BP,ioos:station:wmo:42369:2,2021-11-02T06:59:00Z,27.2159,-90.2846,518.7,11.9,11111222
BP,ioos:station:wmo:42369:2,2021-11-02T07:19:00Z,27.2159,-90.2847,516.9,11.8,11111222
BP,ioos:station:wmo:42369:2,2021-11-02T07:39:00Z,27.2159,-90.2848,517.6,11.9,11111222
BP,ioos:station:wmo:42369:2,2021-11-02T07:59:00Z,27.2159,-90.2849,517.8,11.9,11111222
BP,ioos:station:wmo:42369:2,2021-11-02T08:19:00Z,27.2158,-90.2850,519.7,11.8,11111222
BP,ioos:station:wmo:42369:2,2021-11-02T08:39:00Z,27.2158,-90.2852,517.3,11.8,11111222
BP,ioos:station:wmo:42369:2,2021-11-02T17:59:00Z,27.2156,-90.2853,520.0,11.4,11111222
BP,ioos:station:wmo:42369:2,2021-11-02T19:59:00Z,27.2156,-90.2853,514.8,11.7,11111222
BP,ioos:station:wmo:42369:2,2021-11-02T21:59:00Z,27.2157,-90.2852,517.2,11.7,11111222
BP,ioos:station:wmo:42369:2,2021-11-02T23:59:00Z,27.2157,-90.2853,517.3,11.6,11111222
BP,ioos:station:wmo:42369:2,2021-11-03T00:19:00Z,27.2157,-90.2853,517.1,11.8,11111222
BP,ioos:station:wmo:42369:2,2021-11-03T00:39:00Z,27.2158,-90.2853,516.8,11.8,11111222
BP,ioos:station:wmo:42369:2,2021-11-03T00:59:00Z,27.2158,-90.2852,518.2,11.7,11111222
BP,ioos:station:wmo:42369:2,2021-11-03T01:19:00Z,27.2158,-90.2852,520.1,11.6,11111222
BP,ioos:station:wmo:42369:2,2021-11-03T01:39:00Z,27.2158,-90.2852,519.3,11.6,11111222
BP,ioos:station:wmo:42369:2,2021-11-03T01:59:00Z,27.2158,-90.2852,520.7,11.7,11111222
BP,ioos:station:wmo:42369:2,2021-11-03T02:19:00Z,27.2159,-90.2852,521.3,11.7,11111222
BP,ioos:station:wmo:42369:2,2021-11-03T02:39:00Z,27.2159,-90.2851,522.0,11.7,11111222
BP,ioos:station:wmo:42369:2,2021-11-03T02:59:00Z,27.2159,-90.2851,521.9,11.5,11111222
BP,ioos:station:wmo:42369:2,2021-11-03T03:19:00Z,27.2160,-90.2850,522.0,11.5,11111222
BP,ioos:station:wmo:42369:2,2021-11-03T03:39:00Z,27.2160,-90.2849,521.9,11.7,11111222
BP,ioos:station:wmo:42369:2,2021-11-03T03:59:00Z,27.2160,-90.2848,521.7,11.6,11111222
BP,ioos:station:wmo:42369:2,2021-11-03T04:19:00Z,27.2160,-90.2849,521.5,11.6,11111222
BP,ioos:station:wmo:42369:2,2021-11-03T04:39:00Z,27.2160,-90.2848,521.3,11.5,11111222
BP,ioos:station:wmo:42369:2,2021-11-03T04:59:00Z,27.2160,-90.2848,521.7,11.5,11111222
BP,ioos:station:wmo:42369:2,2021-11-03T05:19:00Z,27.2159,-90.2851,522.7,11.6,11111222
BP,ioos:station:wmo:42369:2,2021-11-03T05:39:00Z,27.2159,-90.2851,522.5,11.5,11111222
BP,ioos:station:wmo:42369:2,2021-11-03T05:59:00Z,27.2159,-90.2852,522.9,11.5,11111222
BP,ioos:station:wmo:42369:2,2021-11-03T06:19:00Z,27.2159,-90.2852,524.2,11.5,11111222
BP,ioos:station:wmo:42369:2,2021-11-03T06:39:00Z,27.2159,-90.2853,524.4,11.6,11111222
BP,ioos:station:wmo:42369:2,2021-11-03T06:59:00Z,27.2159,-90.2854,524.6,11.6,11111222
BP,ioos:station:wmo:42369:2,2021-11-03T07:19:00Z,27.2159,-90.2854,524.6,11.5,11111222
BP,ioos:station:wmo:42369:2,2021-11-03T07:39:00Z,27.2159,-90.2854,526.2,11.5,11111222
BP,ioos:station:wmo:42369:2,2021-11-03T07:59:00Z,27.2159,-90.2854,525.6,11.4,11111222
BP,ioos:station:wmo:42369:2,2021-11-03T08:19:00Z,27.2159,-90.2854,525.8,11.4,11111222
BP,ioos:station:wmo:42369:2,2021-11-03T08:39:00Z,27.2159,-90.2855,526.1,11.4,11111222
BP,ioos:station:wmo:42369:2,2021-11-03T08:59:00Z,27.2159,-90.2855,526.3,11.4,11111222
BP,ioos:station:wmo:42369:2,2021-11-03T09:19:00Z,27.2158,-90.2856,526.0,11.3,11111222
BP,ioos:station:wmo:42369:2,2021-11-03T09:39:00Z,27.2158,-90.2856,526.8,11.2,11111222
BP,ioos:station:wmo:42369:2,2021-11-03T09:59:00Z,27.2158,-90.2856,526.7,11.2,11111222
BP,ioos:station:wmo:42369:2,2021-11-03T10:19:00Z,27.2157,-90.2857,525.9,11.2,11111222
BP,ioos:station:wmo:42369:2,2021-11-03T10:39:00Z,27.2157,-90.2857,526.3,11.2,11111222
BP,ioos:station:wmo:42369:2,2021-11-03T10:59:00Z,27.2157,-90.2858,526.1,11.2,11111222
BP,ioos:station:wmo:42369:2,2021-11-03T11:19:00Z,27.2157,-90.2859,524.8,11.2,11111222
BP,ioos:station:wmo:42369:2,2021-11-03T11:39:00Z,27.2156,-90.2859,524.5,11.1,11111222
BP,ioos:station:wmo:42369:2,2021-11-03T11:59:00Z,27.2156,-90.2860,525.5,11.1,11111222
BP,ioos:station:wmo:42369:2,2021-11-03T12:19:00Z,27.2156,-90.2860,526.0,11.1,11111222
BP,ioos:station:wmo:42369:2,2021-11-03T12:39:00Z,27.2155,-90.2860,526.1,11.1,11111222
BP,ioos:station:wmo:42369:2,2021-11-03T12:59:00Z,27.2156,-90.2858,527.2,11.1,11111222
BP,ioos:station:wmo:42369:2,2021-11-03T13:19:00Z,27.2156,-90.2858,527.3,11.1,11111222
BP,ioos:station:wmo:42369:2,2021-11-03T19:19:00Z,27.2156,-90.2861,519.6,10.9,11111222
BP,ioos:station:wmo:42369:2,2021-11-03T19:39:00Z,27.2156,-90.2861,519.0,10.8,11111222
BP,ioos:station:wmo:42369:2,2021-11-03T20:19:00Z,27.2156,-90.2861,519.9,11.0,11111222
BP,ioos:station:wmo:42369:2,2021-11-03T21:19:00Z,27.2156,-90.2857,517.6,11.1,11111222
BP,ioos:station:wmo:42369:2,2021-11-03T21:39:00Z,27.2156,-90.2857,519.1,11.0,11111222
BP,ioos:station:wmo:42369:2,2021-11-03T22:19:00Z,27.2159,-90.2851,518.6,11.0,11111222
BP,ioos:station:wmo:42369:2,2021-11-03T23:19:00Z,27.2160,-90.2850,520.6,11.1,11111222
BP,ioos:station:wmo:42369:2,2021-11-03T23:59:00Z,27.2161,-90.2847,521.3,11.2,11111222
BP,ioos:station:wmo:42369:2,2021-11-04T00:19:00Z,27.2160,-90.2848,520.6,11.1,11111222
BP,ioos:station:wmo:42369:2,2021-11-04T02:19:00Z,27.2162,-90.2843,523.0,10.9,11111222
BP,ioos:station:wmo:42369:2,2021-11-04T03:59:00Z,27.2157,-90.2857,522.9,10.8,11111222
BP,ioos:station:wmo:42369:2,2021-11-04T04:19:00Z,27.2161,-90.2841,522.1,10.8,11111222
BP,ioos:station:wmo:42369:2,2021-11-04T05:19:00Z,27.2159,-90.2849,523.7,10.6,11111222
BP,ioos:station:wmo:42369:2,2021-11-04T07:39:00Z,27.2159,-90.2845,522.1,10.9,11111222
BP,ioos:station:wmo:42369:2,2021-11-04T07:59:00Z,27.2159,-90.2845,521.7,10.8,11111222
BP,ioos:station:wmo:42369:2,2021-11-04T08:59:00Z,27.2159,-90.2845,521.3,10.8,11111222
BP,ioos:station:wmo:42369:2,2021-11-04T09:19:00Z,27.2160,-90.2844,522.3,10.9,11111222
BP,ioos:station:wmo:42369:2,2021-11-04T09:59:00Z,27.2159,-90.2852,522.2,10.8,11111222
BP,ioos:station:wmo:42369:2,2021-11-04T10:19:00Z,27.2159,-90.2853,522.2,10.8,11111222
BP,ioos:station:wmo:42369:2,2021-11-04T10:39:00Z,27.2159,-90.2853,520.6,10.8,11111222
BP,ioos:station:wmo:42369:2,2021-11-04T10:59:00Z,27.2159,-90.2853,521.3,10.7,11111222
BP,ioos:station:wmo:42369:2,2021-11-04T11:19:00Z,27.2159,-90.2853,522.6,10.7,11111222
BP,ioos:station:wmo:42369:2,2021-11-04T11:39:00Z,27.2159,-90.2853,523.0,10.6,11111222
BP,ioos:station:wmo:42369:2,2021-11-04T11:59:00Z,27.2158,-90.2854,523.1,10.5,11111222
BP,ioos:station:wmo:42369:2,2021-11-04T12:19:00Z,27.2158,-90.2855,523.3,10.6,11111222
BP,ioos:station:wmo:42369:2,2021-11-04T12:39:00Z,27.2158,-90.2855,522.7,10.5,11111222
BP,ioos:station:wmo:42369:2,2021-11-04T12:59:00Z,27.2158,-90.2855,522.7,10.4,11111222
BP,ioos:station:wmo:42369:2,2021-11-04T13:19:00Z,27.2158,-90.2856,525.3,10.4,11111222
BP,ioos:station:wmo:42369:2,2021-11-04T13:39:00Z,27.2158,-90.2856,525.2,10.3,11111222
BP,ioos:station:wmo:42369:2,2021-11-04T13:59:00Z,27.2158,-90.2856,526.4,10.3,11111222
BP,ioos:station:wmo:42369:2,2021-11-04T14:19:00Z,27.2158,-90.2857,525.6,10.3,11111222
BP,ioos:station:wmo:42369:2,2021-11-04T14:39:00Z,27.2158,-90.2857,525.7,10.2,11111222
BP,ioos:station:wmo:42369:2,2021-11-04T14:59:00Z,27.2158,-90.2858,526.6,10.2,11111222
BP,ioos:station:wmo:42369:2,2021-11-04T15:19:00Z,27.2158,-90.2858,526.3,10.3,11111222
BP,ioos:station:wmo:42369:2,2021-11-04T15:39:00Z,27.2156,-90.2860,526.5,10.3,11111222
BP,ioos:station:wmo:42369:2,2021-11-04T15:59:00Z,27.2156,-90.2860,526.7,10.1,11111222
BP,ioos:station:wmo:42369:2,2021-11-04T16:19:00Z,27.2156,-90.2860,525.4,10.1,11111222
BP,ioos:station:wmo:42369:2,2021-11-04T20:59:00Z,27.2156,-90.2861,522.6,10.2,11111222
BP,ioos:station:wmo:42369:2,2021-11-04T21:19:00Z,27.2156,-90.2861,522.9,10.2,11111222
BP,ioos:station:wmo:42369:2,2021-11-04T21:39:00Z,27.2156,-90.2861,522.6,10.2,11111222
BP,ioos:station:wmo:42369:2,2021-11-04T21:59:00Z,27.2156,-90.2861,522.2,10.2,11111222
BP,ioos:station:wmo:42369:2,2021-11-04T22:19:00Z,27.2162,-90.2840,519.9,10.3,11111222
BP,ioos:station:wmo:42369:2,2021-11-04T22:39:00Z,27.2162,-90.2839,519.7,10.4,11111222
BP,ioos:station:wmo:42369:2,2021-11-04T22:59:00Z,27.2163,-90.2839,519.7,10.3,11111222
BP,ioos:station:wmo:42369:2,2021-11-05T00:59:00Z,27.2156,-90.2857,519.4,10.4,11111222
BP,ioos:station:wmo:42369:2,2021-11-05T01:19:00Z,27.2156,-90.2857,520.4,10.3,11111222
BP,ioos:station:wmo:42369:2,2021-11-05T03:59:00Z,27.2158,-90.2855,523.6,10.1,11111222
BP,ioos:station:wmo:42369:2,2021-11-05T04:19:00Z,27.2158,-90.2854,522.4,10.1,11111222
BP,ioos:station:wmo:42369:2,2021-11-05T04:39:00Z,27.2158,-90.2853,521.5,10.1,11111222
BP,ioos:station:wmo:42369:2,2021-11-05T04:59:00Z,27.2159,-90.2852,524.0,10.2,11111222
BP,ioos:station:wmo:42369:2,2021-11-05T05:19:00Z,27.2160,-90.2851,524.3,10.2,11111222
BP,ioos:station:wmo:42369:2,2021-11-05T05:39:00Z,27.2160,-90.2851,525.7,10.2,11111222
BP,ioos:station:wmo:42369:2,2021-11-05T05:59:00Z,27.2160,-90.2850,527.2,10.2,11111222
BP,ioos:station:wmo:42369:2,2021-11-05T06:19:00Z,27.2160,-90.2850,526.0,10.1,11111222
BP,ioos:station:wmo:42369:2,2021-11-05T06:39:00Z,27.2160,-90.2849,526.9,10.2,11111222
BP,ioos:station:wmo:42369:2,2021-11-05T06:59:00Z,27.2161,-90.2847,527.0,10.2,11111222
BP,ioos:station:wmo:42369:2,2021-11-05T07:19:00Z,27.2161,-90.2846,526.8,10.3,11111222
BP,ioos:station:wmo:42369:2,2021-11-05T07:39:00Z,27.2161,-90.2845,525.7,10.3,11111222
BP,ioos:station:wmo:42369:2,2021-11-05T07:59:00Z,27.2161,-90.2845,526.1,10.2,11111222
BP,ioos:station:wmo:42369:2,2021-11-05T08:19:00Z,27.2161,-90.2844,526.3,10.1,11111222
BP,ioos:station:wmo:42369:2,2021-11-05T08:39:00Z,27.2161,-90.2844,526.6,10.2,11111222
BP,ioos:station:wmo:42369:2,2021-11-05T08:59:00Z,27.2162,-90.2844,526.5,10.2,11111222
BP,ioos:station:wmo:42369:2,2021-11-05T09:19:00Z,27.2162,-90.2841,527.2,10.2,11111222
BP,ioos:station:wmo:42369:2,2021-11-05T09:39:00Z,27.2162,-90.2841,525.8,10.1,11111222
BP,ioos:station:wmo:42369:2,2021-11-05T09:59:00Z,27.2162,-90.2841,526.8,10.3,11111222
BP,ioos:station:wmo:42369:2,2021-11-05T10:19:00Z,27.2161,-90.2840,527.5,10.3,11111222
BP,ioos:station:wmo:42369:2,2021-11-05T10:39:00Z,27.2161,-90.2841,526.5,10.3,11111222
BP,ioos:station:wmo:42369:2,2021-11-05T10:59:00Z,27.2161,-90.2841,524.7,10.4,11111222
BP,ioos:station:wmo:42369:2,2021-11-05T11:19:00Z,27.2161,-90.2841,523.8,10.5,11111222
BP,ioos:station:wmo:42369:2,2021-11-05T11:39:00Z,27.2160,-90.2843,520.6,10.4,11111222
BP,ioos:station:wmo:42369:2,2021-11-05T11:59:00Z,27.2160,-90.2847,519.7,10.4,11111222
BP,ioos:station:wmo:42369:2,2021-11-05T12:19:00Z,27.2160,-90.2846,519.6,10.4,11111222
BP,ioos:station:wmo:42369:2,2021-11-05T12:39:00Z,27.2160,-90.2846,518.9,10.4,11111222
BP,ioos:station:wmo:42369:2,2021-11-05T12:59:00Z,27.2160,-90.2847,517.7,10.4,11111222
BP,ioos:station:wmo:42369:2,2021-11-05T13:19:00Z,27.2160,-90.2848,517.1,10.4,11111222
BP,ioos:station:wmo:42369:2,2021-11-05T13:39:00Z,27.2159,-90.2849,516.5,10.4,11111222
BP,ioos:station:wmo:42369:2,2021-11-05T13:59:00Z,27.2159,-90.2849,517.0,10.3,11111222
BP,ioos:station:wmo:42369:2,2021-11-05T14:19:00Z,27.2160,-90.2849,516.9,10.3,11111222
BP,ioos:station:wmo:42369:2,2021-11-05T14:39:00Z,27.2159,-90.2849,518.3,10.3,11111222
BP,ioos:station:wmo:42369:2,2021-11-05T14:59:00Z,27.2159,-90.2849,518.6,10.3,11111222
BP,ioos:station:wmo:42369:2,2021-11-05T15:19:00Z,27.2160,-90.2847,517.8,10.3,11111222
BP,ioos:station:wmo:42369:2,2021-11-05T15:39:00Z,27.2159,-90.2846,518.3,10.2,11111222
BP,ioos:station:wmo:42369:2,2021-11-05T15:59:00Z,27.2159,-90.2847,517.4,10.3,11111222
BP,ioos:station:wmo:42369:2,2021-11-05T16:19:00Z,27.2159,-90.2846,518.0,10.2,11111222
BP,ioos:station:wmo:42369:2,2021-11-05T16:39:00Z,27.2159,-90.2844,519.0,10.2,11111222
BP,ioos:station:wmo:42369:2,2021-11-05T16:59:00Z,27.2159,-90.2845,521.4,10.2,11111222
BP,ioos:station:wmo:42369:2,2021-11-05T17:19:00Z,27.2159,-90.2845,521.1,10.1,11111222
BP,ioos:station:wmo:42369:2,2021-11-05T17:39:00Z,27.2159,-90.2843,521.2,10.1,11111222
BP,ioos:station:wmo:42369:2,2021-11-05T17:59:00Z,27.2160,-90.2844,520.4,10.0,11111222
BP,ioos:station:wmo:42369:2,2021-11-05T18:19:00Z,27.2160,-90.2844,520.3,10.1,11111222
BP,ioos:station:wmo:42369:2,2021-11-05T23:19:00Z,27.2163,-90.2799,511.4,10.1,11111222
BP,ioos:station:wmo:42369:2,2021-11-05T23:39:00Z,27.2163,-90.2800,511.8,10.1,11111222
BP,ioos:station:wmo:42369:2,2021-11-06T00:59:00Z,27.2162,-90.2801,512.2,10.1,11111222
BP,ioos:station:wmo:42369:2,2021-11-06T02:59:00Z,27.2162,-90.2802,517.1,10.1,11111222
BP,ioos:station:wmo:42369:2,2021-11-06T04:59:00Z,27.2161,-90.2842,521.6,10.1,11111222
BP,ioos:station:wmo:42369:2,2021-11-06T05:19:00Z,27.2161,-90.2840,521.2,10.0,11111222
BP,ioos:station:wmo:42369:2,2021-11-06T05:39:00Z,27.2162,-90.2840,520.3,10.0,11111222
BP,ioos:station:wmo:42369:2,2021-11-06T05:59:00Z,27.2162,-90.2839,521.9,10.0,11113222
BP,ioos:station:wmo:42369:2,2021-11-06T06:19:00Z,27.2162,-90.2839,521.7,10.0,11111222
BP,ioos:station:wmo:42369:2,2021-11-06T06:39:00Z,27.2163,-90.2839,522.1,10.0,11113222
BP,ioos:station:wmo:42369:2,2021-11-06T06:59:00Z,27.2164,-90.2834,522.9,9.9,11113222
BP,ioos:station:wmo:42369:2,2021-11-06T07:19:00Z,27.2164,-90.2833,523.6,9.9,11113222
BP,ioos:station:wmo:42369:2,2021-11-06T07:39:00Z,27.2164,-90.2831,524.3,10.0,11111222
BP,ioos:station:wmo:42369:2,2021-11-06T07:59:00Z,27.2165,-90.2832,524.4,10.0,11113222
BP,ioos:station:wmo:42369:2,2021-11-06T08:59:00Z,27.2162,-90.2797,528.1,10.0,11113222
BP,ioos:station:wmo:42369:2,2021-11-06T11:19:00Z,27.2162,-90.2794,528.1,9.8,11113222
BP,ioos:station:wmo:42369:2,2021-11-06T11:59:00Z,27.2162,-90.2794,529.9,9.9,11113222
BP,ioos:station:wmo:42369:2,2021-11-06T14:39:00Z,27.2161,-90.2792,536.2,9.8,11113222
BP,ioos:station:wmo:42369:2,2021-11-06T15:59:00Z,27.2166,-90.2831,539.2,9.7,11113222
BP,ioos:station:wmo:42369:2,2021-11-06T16:19:00Z,27.2166,-90.2827,540.7,9.6,11113222
BP,ioos:station:wmo:42369:2,2021-11-06T16:39:00Z,27.2160,-90.2784,541.3,9.5,11113222
BP,ioos:station:wmo:42369:2,2021-11-06T16:59:00Z,27.2160,-90.2782,541.2,9.5,11113222
BP,ioos:station:wmo:42369:2,2021-11-06T17:39:00Z,27.2158,-90.2780,541.0,9.4,11113222
BP,ioos:station:wmo:42369:2,2021-11-06T17:59:00Z,27.2166,-90.2826,540.7,9.4,11113222
BP,ioos:station:wmo:42369:2,2021-11-06T18:19:00Z,27.2166,-90.2826,539.1,9.4,11113222
BP,ioos:station:wmo:42369:2,2021-11-06T18:39:00Z,27.2166,-90.2826,538.0,9.4,11113222
BP,ioos:station:wmo:42369:2,2021-11-06T18:59:00Z,27.2166,-90.2826,537.2,9.5,11113222
BP,ioos:station:wmo:42369:2,2021-11-06T19:19:00Z,27.2166,-90.2825,536.8,9.5,11113222
BP,ioos:station:wmo:42369:2,2021-11-06T19:39:00Z,27.2166,-90.2825,536.3,9.5,11113222
BP,ioos:station:wmo:42369:2,2021-11-06T19:59:00Z,27.2165,-90.2825,535.6,9.5,11113222
BP,ioos:station:wmo:42369:2,2021-11-06T20:19:00Z,27.2165,-90.2823,534.9,9.5,11113222
BP,ioos:station:wmo:42369:2,2021-11-06T20:39:00Z,27.2165,-90.2822,534.3,9.4,11113222
BP,ioos:station:wmo:42369:2,2021-11-06T20:59:00Z,27.2165,-90.2822,533.2,9.4,11113222
BP,ioos:station:wmo:42369:2,2021-11-06T21:19:00Z,27.2165,-90.2822,533.2,9.5,11113222
BP,ioos:station:wmo:42369:2,2021-11-06T21:39:00Z,27.2165,-90.2819,531.9,9.5,11113222
BP,ioos:station:wmo:42369:2,2021-11-06T21:59:00Z,27.2165,-90.2820,531.2,9.4,11113222
BP,ioos:station:wmo:42369:2,2021-11-06T22:19:00Z,27.2165,-90.2819,529.9,9.4,11113222
BP,ioos:station:wmo:42369:2,2021-11-06T22:39:00Z,27.2166,-90.2817,529.8,9.5,11113222
BP,ioos:station:wmo:42369:2,2021-11-06T22:59:00Z,27.2165,-90.2816,530.0,9.6,11113222
BP,ioos:station:wmo:42369:2,2021-11-06T23:19:00Z,27.2165,-90.2816,528.5,9.6,11113222
BP,ioos:station:wmo:42369:2,2021-11-06T23:39:00Z,27.2165,-90.2816,528.7,9.6,11113222
BP,ioos:station:wmo:42369:2,2021-11-06T23:59:00Z,27.2165,-90.2817,527.8,9.6,11113222
BP,ioos:station:wmo:42369:2,2021-11-07T00:19:00Z,27.2165,-90.2817,528.2,9.5,11113222
BP,ioos:station:wmo:42369:2,2021-11-07T00:39:00Z,27.2165,-90.2817,528.5,9.5,11113222
BP,ioos:station:wmo:42369:2,2021-11-07T00:59:00Z,27.2165,-90.2815,529.3,9.5,11113222
BP,ioos:station:wmo:42369:2,2021-11-07T01:19:00Z,27.2165,-90.2812,530.0,9.4,11113222
BP,ioos:station:wmo:42369:2,2021-11-07T01:39:00Z,27.2165,-90.2810,532.0,9.4,11113222
BP,ioos:station:wmo:42369:2,2021-11-07T01:59:00Z,27.2166,-90.2808,532.3,9.4,11113222
BP,ioos:station:wmo:42369:2,2021-11-07T02:19:00Z,27.2166,-90.2807,533.2,9.4,11113222
BP,ioos:station:wmo:42369:2,2021-11-07T02:39:00Z,27.2165,-90.2804,533.0,9.4,11113222
BP,ioos:station:wmo:42369:2,2021-11-07T02:59:00Z,27.2165,-90.2802,532.4,9.5,11113222
BP,ioos:station:wmo:42369:2,2021-11-07T03:19:00Z,27.2165,-90.2799,533.2,9.4,11113222
BP,ioos:station:wmo:42369:2,2021-11-07T03:39:00Z,27.2164,-90.2798,532.5,9.4,11113222
BP,ioos:station:wmo:42369:2,2021-11-07T03:59:00Z,27.2164,-90.2798,531.7,9.5,11113222
BP,ioos:station:wmo:42369:2,2021-11-07T04:19:00Z,27.2164,-90.2798,531.1,9.4,11113222
BP,ioos:station:wmo:42369:2,2021-11-07T04:39:00Z,27.2164,-90.2799,530.7,9.4,11113222
BP,ioos:station:wmo:42369:2,2021-11-07T04:59:00Z,27.2163,-90.2799,531.2,9.4,11113222
BP,ioos:station:wmo:42369:2,2021-11-07T05:19:00Z,27.2163,-90.2799,531.0,9.4,11113222
BP,ioos:station:wmo:42369:2,2021-11-07T05:39:00Z,27.2163,-90.2799,531.3,9.3,11113222
BP,ioos:station:wmo:42369:2,2021-11-07T05:59:00Z,27.2163,-90.2799,530.3,9.3,11113222
BP,ioos:station:wmo:42369:2,2021-11-07T06:39:00Z,27.2163,-90.2800,532.2,9.5,11113222
BP,ioos:station:wmo:42369:2,2021-11-07T06:59:00Z,27.2163,-90.2800,533.8,9.5,11113222
BP,ioos:station:wmo:42369:2,2021-11-07T07:19:00Z,27.2163,-90.2800,534.1,9.7,11113222
BP,ioos:station:wmo:42369:2,2021-11-07T07:39:00Z,27.2163,-90.2800,535.3,9.6,11113222
BP,ioos:station:wmo:42369:2,2021-11-07T07:59:00Z,27.2163,-90.2801,535.6,9.4,11113222
BP,ioos:station:wmo:42369:2,2021-11-07T08:19:00Z,27.2162,-90.2802,536.5,9.6,11113222
BP,ioos:station:wmo:42369:2,2021-11-07T08:39:00Z,27.2162,-90.2802,537.0,9.3,11113222
BP,ioos:station:wmo:42369:2,2021-11-07T08:59:00Z,27.2162,-90.2802,536.6,9.3,11113222
BP,ioos:station:wmo:42369:2,2021-11-07T09:19:00Z,27.2162,-90.2802,536.3,9.3,11113222
BP,ioos:station:wmo:42369:2,2021-11-07T09:39:00Z,27.2162,-90.2802,537.9,9.4,11113222
BP,ioos:station:wmo:42369:2,2021-11-07T09:59:00Z,27.2162,-90.2801,537.8,9.3,11113222
BP,ioos:station:wmo:42369:2,2021-11-07T10:39:00Z,27.2162,-90.2800,535.8,9.3,11113222
BP,ioos:station:wmo:42369:2,2021-11-07T10:59:00Z,27.2162,-90.2800,534.5,9.4,11113222
BP,ioos:station:wmo:42369:2,2021-11-07T11:19:00Z,27.2162,-90.2800,534.0,9.4,11113222
BP,ioos:station:wmo:42369:2,2021-11-07T11:39:00Z,27.2161,-90.2800,533.3,9.3,11113222
BP,ioos:station:wmo:42369:2,2021-11-07T11:59:00Z,27.2161,-90.2799,531.4,9.5,11113222
BP,ioos:station:wmo:42369:2,2021-11-07T12:19:00Z,27.2161,-90.2798,530.2,9.5,11113222
BP,ioos:station:wmo:42369:2,2021-11-07T12:39:00Z,27.2161,-90.2798,529.9,9.7,11113222